Weather History for Grand Forks AFB, ND

Change the Weather History Date:

Saturday, January 5, 2013

  Actual Average Record
Temperature  
Mean Temperature 9 °F -  
Max Temperature 17 °F 14 °F 51 °F (2012)
Min Temperature 1 °F 0 °F -32 °F (2005)
Degree Days  
Heating Degree Days 56    
Moisture  
Dew Point 3 °F    
Average Humidity 83    
Maximum Humidity 88    
Minimum Humidity 68    
Precipitation  
Precipitation 0.00 in - - ()
Sea Level Pressure  
Sea Level Pressure 30.03 in    
Wind  
Wind Speed 3 mph (NNW)    
Max Wind Speed 16 mph    
Max Gust Speed -    
Visibility 5 miles    
Events Fog , Snow    
Averages and records for this station are not official NWS values.
T = Trace of Precipitation, MM = Missing Value Source: NWS Daily Summary

Daily Weather History Graph

Daily Weather History Graph

Search for Another Location

Airport:

Trip Planner

Search our weather history database for the weather conditions in past years. The results will help you decide how hot, cold, wet, or windy it might be!

Date:

Astronomy

Jan. 05, 2013 Rise Set
Actual Time 8:18 AM CST 4:51 PM CST
Civil Twilight 7:42 AM CST 5:27 PM CST
Nautical Twilight 7:03 AM CST 6:06 PM CST
Astronomical Twilight 6:26 AM CST 6:44 PM CST
Moon 1:10 AM CST (1/5) 11:56 AM CST (1/5)
Length of Visible Light 9h 44m
Length of Day
8h 33m
Last Quarter, 44% of the Moon is Illuminated
Jan 5
Last Quarter
Jan 11
New
Jan 18
First Quarter
Jan 26
Full
Feb 3
Last Quarter

Hourly Weather History & Observations

Time (CST) Temp. Windchill Dew Point Humidity Pressure Visibility Wind Dir Wind Speed Gust Speed Precip Events Conditions
12:55 AM 2.7 °F - -1.7 °F 82% 30.04 in 0.2 mi Calm Calm - N/A   Haze
1:02 AM 3.2 °F - -2.2 °F 78% 30.04 in 0.5 mi Calm Calm - N/A   Haze
1:20 AM 1.4 °F - -2.2 °F 85% 30.03 in 0.5 mi Calm Calm - N/A   Haze
1:33 AM 1.4 °F - -2.2 °F 85% 30.03 in 0.2 mi Calm Calm - N/A   Haze
1:43 AM 1.4 °F - -2.2 °F 85% 30.03 in 0.5 mi Calm Calm - N/A   Haze
1:47 AM 1.4 °F - -2.2 °F 85% 30.03 in 0.2 mi Calm Calm - N/A   Haze
1:55 AM 2.3 °F - -1.8 °F 83% 30.02 in 0.2 mi Calm Calm - N/A   Haze
2:25 AM 3.2 °F - -2.2 °F 78% 30.03 in 0.5 mi Calm Calm - N/A   Haze
2:49 AM 3.2 °F - -0.4 °F 85% 30.02 in 0.5 mi Calm Calm - N/A Fog Light Freezing Fog
2:53 AM 3.2 °F - -0.4 °F 85% 30.02 in 0.8 mi Calm Calm - N/A Snow Light Snow
2:55 AM 3.4 °F - -0.4 °F 84% 30.02 in 0.5 mi Calm Calm - N/A Fog Light Freezing Fog
2:59 AM 3.2 °F - -0.4 °F 85% 30.02 in 0.8 mi Calm Calm - N/A Snow Light Snow
3:01 AM 3.2 °F - -0.4 °F 85% 30.02 in 0.8 mi Calm Calm - N/A Snow Light Snow
3:02 AM 3.2 °F - -0.4 °F 85% 30.02 in 1.0 mi Calm Calm - N/A   Mist
3:06 AM 3.2 °F - -0.4 °F 85% 30.02 in 1.5 mi Calm Calm - N/A   Overcast
3:37 AM 5.0 °F - 1.4 °F 85% 30.02 in 0.8 mi Calm Calm - N/A Snow Light Snow
3:55 AM 4.6 °F - 0.7 °F 84% 30.01 in 0.8 mi Calm Calm - 0.00 in   Mist
4:15 AM 5.0 °F - 1.4 °F 85% 30.00 in 1.0 mi Calm Calm - N/A Snow Light Snow
4:20 AM 5.0 °F - -0.4 °F 78% 30.00 in 0.8 mi Calm Calm - N/A Snow Light Snow
4:47 AM 3.2 °F - -0.4 °F 85% 29.98 in 0.5 mi Calm Calm - N/A   Light Freezing Drizzle
4:51 AM 3.2 °F - -2.2 °F 78% 29.98 in 0.8 mi Calm Calm - N/A Snow Light Snow
4:59 AM 3.2 °F -4.2 °F -0.4 °F 85% 29.97 in 0.8 mi NE 3.5 mph - N/A Snow Light Snow
5:02 AM 3.2 °F -4.2 °F -0.4 °F 85% 29.97 in 1.0 mi NE 3.5 mph - N/A Snow Light Snow
5:04 AM 3.2 °F -4.2 °F -0.4 °F 85% 29.97 in 1.2 mi NNE 3.5 mph - N/A Snow Light Snow
5:06 AM 3.2 °F -4.2 °F -0.4 °F 85% 29.98 in 1.5 mi NNE 3.5 mph - N/A Snow Light Snow
5:12 AM 3.2 °F - -0.4 °F 85% - 1.2 mi Calm Calm - N/A   Overcast
5:14 AM 3.2 °F - -2.2 °F 78% 29.97 in 1.0 mi Calm Calm - N/A   Light Freezing Drizzle
5:17 AM 3.2 °F - -2.2 °F 78% 29.98 in 0.8 mi Calm Calm - N/A   Light Freezing Drizzle
5:20 AM 3.2 °F -4.2 °F -2.2 °F 78% 29.98 in 0.8 mi NW 3.5 mph - N/A   Light Freezing Drizzle
5:24 AM 3.2 °F -6.2 °F -2.2 °F 78% 29.98 in 1.0 mi NW 4.6 mph - N/A   Mist
5:29 AM 3.2 °F -4.2 °F -0.4 °F 85% 29.98 in 2.0 mi North 3.5 mph - N/A   Overcast
5:32 AM 3.2 °F -6.2 °F -0.4 °F 85% 29.99 in 3.0 mi NNW 4.6 mph - N/A   Light Freezing Drizzle
5:37 AM 3.2 °F -4.2 °F -0.4 °F 85% 29.98 in 2.0 mi NNW 3.5 mph - N/A   Overcast
5:55 AM 4.3 °F -2.9 °F 0.3 °F 84% 29.98 in 2.0 mi North 3.5 mph - 0.00 in   Overcast
6:08 AM 5.0 °F -4.1 °F 1.4 °F 85% 29.98 in 2.5 mi North 4.6 mph - N/A   Overcast
6:31 AM 5.0 °F -2.1 °F 1.4 °F 85% 29.98 in 3.0 mi North 3.5 mph - N/A   Light Freezing Drizzle
6:32 AM 5.0 °F -2.1 °F 1.4 °F 85% 29.98 in 2.5 mi North 3.5 mph - N/A   Light Freezing Drizzle
6:35 AM 5.0 °F -2.1 °F 1.4 °F 85% 29.98 in 3.0 mi North 3.5 mph - N/A   Light Freezing Drizzle
6:43 AM 5.0 °F -2.1 °F 1.4 °F 85% 29.98 in 2.5 mi North 3.5 mph - N/A   Light Freezing Drizzle
6:50 AM 5.0 °F -6.9 °F 1.4 °F 85% 29.99 in 1.8 mi North 6.9 mph - N/A Snow Light Snow
6:57 AM 5.0 °F -6.9 °F 1.4 °F 85% 29.99 in 1.8 mi North 6.9 mph - N/A Snow Light Snow
6:59 AM 5.0 °F -8.1 °F 1.4 °F 85% 29.99 in 2.0 mi North 8.1 mph - N/A Snow Light Snow
7:04 AM 5.0 °F -9.1 °F 1.4 °F 85% 29.99 in 3.0 mi North 9.2 mph - N/A Snow Light Snow
7:15 AM 6.8 °F -5.9 °F 3.2 °F 85% 30.00 in 4.0 mi North 8.1 mph - N/A Snow Light Snow
7:32 AM 6.8 °F -4.8 °F 3.2 °F 85% 29.99 in 6.0 mi North 6.9 mph - N/A Snow Light Snow
7:53 AM 6.8 °F -7.8 °F 3.2 °F 85% 30.00 in 7.0 mi North 10.4 mph - N/A Snow Light Snow
7:55 AM 6.8 °F -6.9 °F 3.2 °F 85% 30.00 in 7.0 mi North 9.2 mph - 0.00 in Snow Light Snow
7:58 AM 6.8 °F -8.6 °F 3.2 °F 85% 30.00 in 7.0 mi North 11.5 mph - N/A Snow Light Snow
8:10 AM 6.8 °F -6.9 °F 3.2 °F 85% 30.00 in 10.0 mi North 9.2 mph - N/A Snow Light Snow
8:14 AM 6.8 °F -4.8 °F 3.2 °F 85% 30.00 in 10.0 mi North 6.9 mph - N/A   Overcast
8:44 AM 5.0 °F -8.1 °F 1.4 °F 85% 30.01 in 10.0 mi North 8.1 mph - N/A   Mostly Cloudy
8:55 AM 5.7 °F -8.2 °F 1.8 °F 84% 30.01 in 10.0 mi North 9.2 mph - 0.00 in   Mostly Cloudy
8:58 AM 5.0 °F -6.9 °F 1.4 °F 85% 30.01 in 10.0 mi North 6.9 mph - N/A   Mostly Cloudy
9:17 AM 6.8 °F -6.9 °F 3.2 °F 85% 30.02 in 10.0 mi North 9.2 mph - N/A   Overcast
9:41 AM 6.8 °F -9.3 °F 3.2 °F 85% 30.03 in 10.0 mi North 12.7 mph - N/A   Overcast
9:50 AM 6.8 °F -8.6 °F 3.2 °F 85% 30.04 in 10.0 mi North 11.5 mph - N/A   Overcast
9:55 AM 7.2 °F -8.9 °F 3.6 °F 85% 30.04 in 10.0 mi North 12.7 mph - N/A   Overcast
9:57 AM 6.8 °F -8.6 °F 3.2 °F 85% 30.04 in 10.0 mi North 11.5 mph - N/A   Overcast
10:55 AM 8.8 °F -6.8 °F 5.4 °F 86% 30.06 in 10.0 mi North 12.7 mph - N/A   Mostly Cloudy
11:01 AM 8.6 °F -7.0 °F 5.0 °F 85% 30.06 in 10.0 mi North 12.7 mph - N/A   Mostly Cloudy
11:55 AM 12.2 °F -3.7 °F 9.1 °F 88% 30.05 in 10.0 mi North 15.0 mph - N/A   Scattered Clouds
12:55 PM 12.9 °F -3.4 °F 9.7 °F 87% 30.05 in 10.0 mi North 16.1 mph - N/A   Mostly Cloudy
1:55 PM 14.5 °F -0.7 °F 10.2 °F 83% 30.05 in 10.0 mi North 15.0 mph - N/A   Mostly Cloudy
2:55 PM 15.6 °F 0.1 °F 8.6 °F 74% 30.06 in 10.0 mi North 16.1 mph - N/A   Clear
3:55 PM 13.5 °F 2.2 °F 7.0 °F 75% 30.10 in 10.0 mi North 8.1 mph - N/A   Clear
4:55 PM 11.8 °F -0.7 °F 3.2 °F 68% 30.11 in 10.0 mi North 9.2 mph - N/A   Clear
5:55 PM 10.6 °F -1.3 °F 3.7 °F 74% 30.12 in 10.0 mi NNW 8.1 mph - N/A   Clear
6:41 PM 10.4 °F 0.8 °F 3.2 °F 73% 30.13 in 10.0 mi NW 5.8 mph - N/A   Mostly Cloudy
6:55 PM 10.9 °F 0.2 °F 4.8 °F 76% 30.14 in 10.0 mi WNW 6.9 mph - N/A   Mostly Cloudy
6:56 PM 12.2 °F 2.9 °F 5.0 °F 73% 30.14 in 10.0 mi NW 5.8 mph - N/A   Overcast
7:02 PM 12.2 °F 2.9 °F 6.8 °F 79% 30.14 in 10.0 mi WNW 5.8 mph - N/A   Overcast
7:55 PM 16.3 °F 6.7 °F 10.9 °F 79% 30.12 in 10.0 mi NW 6.9 mph - N/A   Overcast
8:11 PM 15.8 °F 8.6 °F 10.4 °F 79% 30.11 in 10.0 mi WNW 4.6 mph - N/A   Overcast
8:32 PM 17.6 °F 6.4 °F 12.2 °F 79% 30.11 in 10.0 mi WNW 9.2 mph - N/A   Overcast
8:55 PM 17.1 °F 8.7 °F 12.0 °F 81% 30.11 in 10.0 mi NW 5.8 mph - N/A   Overcast
8:58 PM 17.6 °F 9.3 °F 12.2 °F 79% 30.12 in 10.0 mi NW 5.8 mph - N/A   Overcast
9:48 PM 17.6 °F - 12.2 °F 79% 30.11 in 10.0 mi Calm Calm - N/A   Overcast
9:55 PM 17.4 °F - 12.4 °F 81% 30.11 in 10.0 mi Calm Calm - N/A   Overcast
10:55 PM 17.1 °F - 12.9 °F 84% 30.12 in 10.0 mi Calm Calm - N/A   Overcast
11:33 PM 17.6 °F 7.3 °F 12.2 °F 79% 30.09 in 10.0 mi SSW 8.1 mph - N/A Snow Light Snow
11:43 PM 17.6 °F 9.3 °F 14.0 °F 86% 30.09 in 10.0 mi SSW 5.8 mph - N/A   Overcast
11:46 PM 17.6 °F 7.3 °F 14.0 °F 86% 30.09 in 10.0 mi South 8.1 mph - N/A Snow Light Snow
11:55 PM 17.4 °F 7.1 °F 13.3 °F 84% 30.08 in 10.0 mi SSW 8.1 mph - 0.00 in Snow Light Snow